Flag for U.S.A. Weather past 2 weeks in Vevay, Indiana, U.S.A.

Now
25 °F

Overcast.


Feels Like: 18 °F
Forecast: 22 / 34 °F
Wind: 6 mph from East

Location: Cincinnati / Northern Kentucky International Airport

Current Time: Jan 27, 2015 at 1:12:23 AM

Latest Report: Jan 26, 2015 at 11:52 PM


Visibility: 9 mi

Pressure: 29.96 "Hg

Humidity: 72%

Dew point: 17 °F

Location of VevayLocation

Historic Weather in Vevay — Graph

°F

Vevay temperature yesterday

Maximum temperature yesterday: 30 °F (at 3:52 PM)
Minimum temperature yesterday: 21 °F (at 5:52 AM)
Average temperature yesterday: 25 °F

Past Weeks' High & Low Weather Summary

 TemperatureHumidityPressure
High54 °F (Jan 20, 2:52 PM)93% (Jan 18, 4:52 AM)30.60 "Hg (Jan 18, 4:52 AM)
Low20 °F (Jan 14, 3:52 AM)31% (Jan 15, 2:52 PM)29.65 "Hg (Jan 25, 3:52 PM)
Average34 °F69%30.08 "Hg
* Reported Jan 11 11:52 PM — Jan 26 11:52 PM, Vevay, Weather by CustomWeather, © 2014

Note: Actual official high and low records may vary slightly from our data, if they occured in-between our weather recording intervals... More about our weather records

Advertising

Vevay weather history for previous 24 hours

 ConditionsComfort  
Time TempWeatherWind HumidityBarometerVisibility
11:52 PM
Jan 26
25 °FOvercast.6 mph72%29.96 "Hg9 mi
10:52 PM25 °FMostly cloudy.5 mph72%29.96 "Hg10 mi
9:52 PM25 °FOvercast.7 mph72%29.96 "Hg10 mi
9:03 PM25 °FPartly cloudy.6 mph74%29.93 "Hg10 mi
8:52 PM25 °FPassing clouds.7 mph75%29.96 "Hg10 mi
7:52 PM27 °FMostly cloudy.3 mph69%29.95 "Hg10 mi
6:52 PM27 °FPassing clouds.3 mph69%29.94 "Hg10 mi
5:52 PM28 °FPartly cloudy.7 mph69%29.94 "Hg10 mi
4:52 PM29 °FPartly sunny.9 mph66%29.92 "Hg10 mi
3:52 PM30 °FScattered clouds.10 mph64%29.90 "Hg10 mi
2:52 PM29 °FScattered clouds.8 mph64%29.89 "Hg10 mi
1:59 PM28 °FPartly sunny.9 mph69%29.88 "Hg10 mi
12:52 PM26 °FPartly sunny.6 mph71%29.92 "Hg10 mi
11:52 AM25 °FPartly sunny.10 mph72%29.93 "Hg10 mi
10:52 AM22 °FPartly sunny.15 mph75%29.95 "Hg10 mi
8:52 AM21 °FBroken clouds.12 mph81%29.89 "Hg10 mi
7:52 AM21 °FMostly cloudy.17 mph81%29.87 "Hg10 mi
6:52 AM21 °FOvercast.17 mph81%29.85 "Hg10 mi
5:52 AM21 °FMostly cloudy.17 mph81%29.83 "Hg10 mi
4:52 AM23 °FMostly cloudy.14 mph81%29.81 "Hg9 mi
3:59 AM25 °FIce fog.20 mph80%29.77 "Hg2 mi
2:58 AM25 °FLight snow. Ice fog.16 mph86%29.74 "Hg1 mi
1:52 AM27 °FLight snow. Ice fog.15 mph89%29.74 "Hg2 mi
Weather by CustomWeather, © 2014

See weather overviewHow to use our weather pages